Location: Molveno
(46.1500°N, 10.9667°E)
Time: 16:20:23
(UTC+00:00)

Cosmos 773 Rocket - Pass Details

Date: 05 July 2020
Orbit: 746 x 776 km, 74.1° (Epoch: 11 August)

Event Time Altitude Azimuth Distance (km) Brightness Sun altitude
Rises 20:49:32 0° 201° (SSW) 3,241 6.9 -13.1°
Reaches altitude 10° 20:51:54 10° 202° (SSW) 2,319 6.2 -13.3°
Maximum altitude 20:57:11 85° 292° (WNW) 786 4.1 -13.9°
Drops below altitude 10° 21:02:30 10° 21° (NNE) 2,331 7.0 -14.4°
Sets 21:04:54 0° 22° (NNE) 3,260 7.8 -14.6°
